Cloud_Cover
100 65 4 4 0 0 0 0 0 0 1 5 3 5 0 0 0 0 0 0 0 0 0 0 0 0 0 0 0 0 0 0 3 68 17 5 84 87 38 75 100 100 100 99
100 100 10 5 0 4 0 1 0 0 0 2 5 4 0 0 0 0 0 0 0 0 0 0 0 0 0 0 0 0 0 0 0 4 7 90 25 97 76 48 100 100 100 100
98 100 67 5 5 5 7 1 0 0 0 0 0 4 0 0 0 0 0 0 0 0 0 0 0 0 31 30 14 1 0 0 0 3 5 100 96 34 32 35 100 100 100 100
100 98 100 68 5 5 47 5 4 0 0 0 0 4 0 0 0 0 0 0 0 0 0 0 48 89 100 100 92 56 12 0 82 100 100 84 100 25 74 41 100 100 100 100
100 100 100 100 67 9 92 5 5 1 5 0 0 2 0 0 0 0 0 0 0 0 0 24 100 89 100 100 100 100 71 1 13 9 19 5 5 7 17 62 99 100 100 100
100 100 100 99 53 52 48 5 25 11 1 4 0 0 0 0 0 0 0 0 0 0 0 98 100 85 98 100 74 99 94 58 25 15 0 2 87 76 86 97 100 100 100 100
89 98 100 100 96 72 14 5 4 37 5 5 0 0 0 0 0 0 0 0 0 0 10 100 100 100 99 100 97 90 100 100 100 90 98 100 51 100 100 100 100 100 100 100
66 60 100 100 100 98 10 5 7 4 96 53 3 0 0 0 0 0 0 0 0 0 71 100 100 100 99 100 100 100 98 100 100 100 100 100 98 96 98 100 100 100 100 100
95 26 99 96 100 100 21 60 58 18 49 73 68 4 1 0 0 0 0 0 0 0 74 100 100 100 100 100 100 100 100 100 100 100 100 100 100 100 100 100 100 100 100 100
100 50 33 5 33 91 88 15 71 66 17 100 100 5 5 2 0 0 0 0 0 0 71 100 100 100 100 88 100 100 100 100 100 100 100 100 100 100 100 100 100 100 100 100
100 100 100 80 5 92 100 8 72 44 76 11 100 100 100 5 3 0 0 0 0 0 10 100 100 100 100 79 100 100 100 100 100 100 100 100 100 100 100 100 100 100 100 100
100 91 100 100 93 100 100 5 5 5 100 100 98 100 100 89 5 0 0 0 0 0 100 100 100 100 100 100 100 100 100 100 100 100 100 100 100 100 100 100 100 100 100 100
96 6 9 6 43 100 68 30 99 100 100 100 100 100 100 100 100 6 0 0 0 0 30 100 100 100 100 100 100 100 100 100 100 100 100 100 100 100 100 100 100 100 98 100
100 13 58 5 4 99 100 100 100 100 99 100 100 100 100 100 100 69 4 0 0 0 8 100 100 100 100 100 100 100 100 100 100 100 100 100 100 100 100 100 100 100 100 100
90 100 78 5 73 20 100 100 100 95 30 80 100 100 100 100 100 100 5 0 1 8 8 100 100 100 100 100 100 100 100 100 99 100 100 100 100 100 100 100 100 100 100 100
100 100 100 7 6 96 95 100 100 5 17 100 100 100 92 100 100 100 86 5 0 14 2 100 100 100 100 100 100 100 100 97 76 88 96 100 100 100 100 100 100 100 100 100
98 100 100 96 82 27 84 74 100 72 6 100 100 100 100 100 100 100 100 29 1 0 0 94 100 100 100 100 100 100 100 100 100 100 100 100 95 99 100 100 97 95 92 100
24 100 100 100 100 100 2 79 100 100 37 100 100 100 100 100 100 100 100 100 4 0 0 4 96 99 100 100 100 100 100 100 100 100 100 100 100 100 100 92 57 23 0 1
3 34 10 100 64 41 5 1 89 100 100 100 100 100 100 100 100 100 100 100 45 0 0 0 0 0 2 63 100 100 100 100 100 100 100 100 99 67 2 0 0 0 0 0
6 13 100 100 100 81 0 0 8 100 98 100 100 100 100 100 100 100 100 100 94 5 0 0 0 0 0 21 100 100 100 100 100 100 87 30 0 0 0 0 0 0 0 0
59 100 100 64 100 25 0 2 3 86 98 100 100 100 100 100 100 98 100 100 100 70 5 0 0 0 0 0 60 95 93 87 54 5 5 0 0 0 0 0 0 0 0 0
46 100 100 99 96 72 26 100 36 67 100 100 100 100 100 100 100 95 100 100 100 98 27 0 0 0 0 0 12 30 2 0 0 5 6 5 0 0 0 0 0 0 0 0
5 66 92 100 12 0 100 100 46 100 100 100 100 100 100 100 100 100 100 100 100 100 62 18 0 0 0 0 0 0 0 0 0 5 5 5 0 0 0 0 0 0 0 0
7 100 100 100 16 2 100 100 100 100 100 100 100 100 100 100 100 100 100 100 100 100 43 50 0 0 0 2 2 0 0 0 0 4 4 5 1 0 0 0 0 0 0 0
66 68 29 100 64 95 100 100 100 100 100 100 100 100 100 100 100 100 100 100 100 100 93 7 1 0 6 7 5 5 0 0 0 5 5 5 5 0 0 0 0 0 0 0
100 10 30 2 49 98 100 100 100 100 100 100 100 100 100 100 100 100 100 100 100 100 100 17 4 0 99 26 5 0 0 5 11 5 5 4 3 0 0 0 0 0 0 0